Regional Weather Roundup
Issued by NWS Sioux Falls, SD

Home | Current Version | Previous Version | Graphics & Text | Print | Product List | Glossary Off
Versions: 1 2 3 4 5 6 7 8 9 10 11 12 13 14 15 16 17 18 19 20 21 22 23 24 25 26 27 28 29 30 31 32 33 34 35 36 37 38 39 40 41 42 43 44 45 46 47 48 49 50

000
ASUS43 KFSD 231102
RWRFSD

WEATHER ROUNDUP FOR SE SOUTH DAKOTA/SW MINNESOTA/NW IOWA
NATIONAL WEATHER SERVICE SIOUX FALLS SD
500 AM CST MON JAN 23 2017

NOTE: "FAIR" INDICATES FEW OR NO CLOUDS BELOW 12,000 FEET WITH NO
SIGNIFICANT WEATHER AND OR OBSTRUCTIONS TO VISIBILITY.


SDZ038>040-050-052>070-231200-
SOUTHEAST SOUTH DAKOTA

CITY           SKY/WX    TMP DP  RH WIND       PRES   REMARKS
BROOKINGS      CLOUDY    29  27  92 N8        29.82F WCI  21
CHAMBERLAIN    CLOUDY    30  28  91 CALM      29.85R
HURON          CLOUDY    29  26  89 NW6       29.84F WCI  23
MADISON        CLOUDY    28  28 100 NW7         N/A  WCI  21
MITCHELL       CLOUDY    31  26  82 NW7       29.87S WCI  24
SIOUX FALLS    CLOUDY    31  29  92 NW8       29.85S WCI  23
WINNER         FOG       25  23  92 S7        29.83F VSB 1/4 WCI  17
YANKTON        CLOUDY    30  25  80 NW6       29.86F WCI  24
$$

MNZ071-072-080-081-089-090-097-098-231200-
SOUTHWEST MINNESOTA

CITY           SKY/WX    TMP DP  RH WIND       PRES   REMARKS
FAIRMONT       CLOUDY    33  28  81 NW9       29.84F WCI  25
JACKSON        CLOUDY    32  28  86 NW7       29.83F WCI  26
LUVERNE        CLOUDY    32  27  80 N8        29.85F WCI  25
MARSHALL       CLOUDY    33  29  85 NW12      29.84F WCI  24
MONTEVIDEO     CLOUDY    34  34 100 NW9       29.85F WCI  26
PIPESTONE      CLOUDY    30  28  93 NW7       29.82F WCI  23
REDWOOD FALLS  CLOUDY    33  28  81 NW6       29.83S WCI  28
TRACY          CLOUDY    33  30  88 NW8       29.84S WCI  26
WINDOM         CLOUDY    34  28  80 NW15      29.83S WCI  24
WORTHINGTON    CLOUDY    32  29  88 NW10      29.83F WCI  24
$$

IAZ001>003-012>014-020>022-031-032-NEZ013-014-SDZ071-231200-
NORTHWEST IOWA

CITY           SKY/WX    TMP DP  RH WIND       PRES   REMARKS
CHEROKEE       CLOUDY    32  30  92 NW3       29.87S
DENISON        CLOUDY    32  28  86 NW7G14    29.86F WCI  26
ESTHERVILLE    CLOUDY    31  29  92 NW9       29.83F WCI  23
LE MARS        CLOUDY    32  28  86 NW7       29.89S WCI  26
ORANGE CITY    CLOUDY    30  28  93 N6        29.86R WCI  24
SHELDON        CLOUDY    32  32 100 NW9       29.84S WCI  24
SIOUX CITY     CLOUDY    33  29  85 N8        29.88F WCI  26
SPENCER          N/A    N/A N/A N/A MISG      29.84F
STORM LAKE     CLOUDY    30  28  93 NW9       29.86R WCI  22
$$

ABBREVIATIONS USED IN REMARKS
   TC - TEMPERATURE IN CELSIUS
  WCI - WIND CHILL INDEX
   HX - HEAT INDEX
  VSB - VISIBILITY




USA.gov is the U.S. government's official web portal to all federal, state and local government web resources and services.